"2009-12-15 00:00:00",1503646,12.34,290.5,3.719,0.659,7.279,100.9704,1.775,3.087,34.7,0,109.7,13.52,2.53,252.5
"2009-12-15 00:00:30",1503647,12.61,289.7,3.899,0.482,7.256,100.9727,1.781,3.083,34.89,0,109.6,13.52,2.54,251.7
"2009-12-15 00:01:00",1503648,12.4,288.4,3.908,0.537,7.26,100.9727,1.781,3.083,35,0,109.6,13.52,2.54,250.4
"2009-12-15 00:01:30",1503649,12.28,292,3.891,0.546,7.232,100.9762,1.79,3.079,34.83,0,109.7,13.52,2.55,254.0
"2009-12-15 00:02:00",1503650,12.75,292.4,3.045,0.731,7.252,100.9685,1.77,3.053,34.63,0,109.7,13.52,2.53,254.4
"2009-12-15 00:02:30",1503651,12.77,292.8,2.721,0.666,7.194,100.9547,1.735,3.045,34.8,0,109.6,13.52,2.49,254.8
"2009-12-15 00:03:00",1503652,12.66,289.2,4.005,0.691,7.253,100.9467,1.715,3.042,35.05,0,109.6,13.52,2.47,251.2
"2009-12-15 00:03:30",1503653,12.47,289.4,2.96,0.762,7.16,100.9428,1.705,3.025,35.3,0,109.7,13.52,2.46,251.4
"2009-12-15 00:04:00",1503654,12.62,289,3.131,0.638,7.356,100.9436,1.707,3.018,35.31,0,109.7,13.53,2.46,251.0
"2009-12-15 00:04:30",1503655,12.2,290,3.457,0.677,7.229,100.9456,1.712,3.009,35.34,0,109.6,13.53,2.47,252.0
"2009-12-15 00:05:00",1503656,11.59,294.2,3.706,0.711,7.197,100.9462,1.714,2.998,35,0,109.6,13.53,2.47,256.2
"2009-12-15 00:05:30",1503657,11.47,295,3.788,0.599,7.095,100.9425,1.704,2.992,34.73,0,109.6,13.53,2.46,257.0
"2009-12-15 00:06:00",1503658,11.83,291.5,4.536,0.691,7.148,100.9315,1.676,2.982,34.95,0,109.6,13.53,2.43,253.5
"2009-12-15 00:06:30",1503659,11.8,293.9,4.515,0.585,7.127,100.9145,1.633,2.965,35.04,0,109.6,13.53,2.39,255.9
"2009-12-15 00:07:00",1503660,11.32,294.5,4.299,0.744,7.137,100.9145,1.633,2.974,34.81,0,109.6,13.53,2.39,256.5
"2009-12-15 00:07:30",1503661,11.35,293.2,4.136,0.625,7.138,100.9154,1.635,2.952,34.64,0,109.6,13.53,2.39,255.2
"2009-12-15 00:08:00",1503662,11.38,297.1,3.713,0.735,7.156,100.9157,1.636,2.953,34.36,0,109.6,13.53,2.39,259.1
"2009-12-15 00:08:30",1503663,12.25,294.3,3.422,0.668,6.943,100.9159,1.636,2.948,34.62,0,109.6,13.53,2.39,256.3
"2009-12-15 00:09:00",1503664,12.83,294.3,3.402,0.886,6.911,100.9165,1.638,2.936,34.85,0,109.6,13.53,2.40,256.3
"2009-12-15 00:09:30",1503665,13.08,297.7,3.186,0.764,6.808,100.9168,1.639,2.926,35.03,0,109.6,13.53,2.40,259.7
"2009-12-15 00:10:00",1503666,12.7,299.6,3.427,0.751,7.225,100.9168,1.639,2.934,34.98,0,109.6,13.53,2.40,261.6
"2009-12-15 00:10:30",1503667,11.71,302.6,3.656,0.614,7.316,100.9168,1.639,2.918,34.52,0,109.6,13.53,2.40,264.6
"2009-12-15 00:11:00",1503668,10.91,302.9,3.526,0.789,7.317,100.9168,1.639,2.935,34.01,0,109.6,13.53,2.40,264.9
"2009-12-15 00:11:30",1503669,9.66,305.5,4.954,0.695,7.358,100.9168,1.639,2.921,33.66,0,109.6,13.53,2.40,267.5
"2009-12-15 00:12:00",1503670,8.78,307.8,3.796,0.572,7.211,100.9168,1.639,2.915,33.1,0,109.6,13.53,2.40,269.8
"2009-12-15 00:12:30",1503671,9.06,310.2,4.111,0.521,7.289,100.9168,1.639,2.931,32.71,0,109.6,13.53,2.40,272.2
"2009-12-15 00:13:00",1503672,9.73,301.3,6.454,1.321,5.901,100.9168,1.639,2.897,32.7,0,109.6,13.53,2.40,263.3
"2009-12-15 00:13:30",1503673,12.03,298.6,4.504,1.005,6.058,100.9168,1.639,2.906,33.58,0,109.6,13.53,2.40,260.6
"2009-12-15 00:14:00",1503674,12.21,300.1,4.177,0.895,6.22,100.9168,1.639,2.93,33.88,0,109.6,13.53,2.40,262.1
"2009-12-15 00:14:30",1503675,12.34,302,3.731,0.644,6.847,100.9171,1.639,2.942,33.98,0,109.6,13.53,2.40,264.0
"2009-12-15 00:15:00",1503676,12.47,304.1,2.735,0.783,6.733,100.9176,1.641,2.95,33.85,0,109.6,13.53,2.40,266.1
"2009-12-15 00:15:30",1503677,11.86,304.4,3.92,0.698,7.257,100.9176,1.641,2.963,33.47,0,109.6,13.52,2.40,266.4
"2009-12-15 00:16:00",1503678,11.22,303.3,3.453,0.502,7.226,100.9179,1.641,2.945,33.23,0,109.6,13.53,2.40,265.3
"2009-12-15 00:16:30",1503679,10.55,300.5,3.351,0.689,7.055,100.9174,1.64,2.947,33.13,0,109.6,13.53,2.40,262.5
"2009-12-15 00:17:00",1503680,10.3,299.5,3.603,0.719,7.008,100.9179,1.641,2.974,33.05,0,109.6,13.53,2.40,261.5
"2009-12-15 00:17:30",1503681,9.34,302.9,3.422,0.701,6.865,100.9188,1.644,2.964,32.97,0,109.6,13.53,2.40,264.9
"2009-12-15 00:18:00",1503682,9.39,298.5,5.015,0.6,6.963,100.9219,1.652,2.941,32.93,0,109.6,13.53,2.41,260.5
"2009-12-15 00:18:30",1503683,10.21,298.1,3.667,0.518,6.899,100.925,1.659,2.947,32.88,0,109.6,13.53,2.42,260.1
"2009-12-15 00:19:00",1503684,11.01,298.6,3.804,0.904,6.7,100.9326,1.679,2.969,32.78,0,109.6,13.53,2.44,260.6
"2009-12-15 00:19:30",1503685,12.28,297.9,3.285,0.704,6.539,100.9394,1.696,2.945,32.81,0,109.6,13.53,2.45,259.9
"2009-12-15 00:20:00",1503686,12.33,296.7,3.774,0.794,6.792,100.942,1.703,2.958,33.22,0,109.6,13.54,2.46,258.7
"2009-12-15 00:20:30",1503687,12.19,297.5,3.076,0.749,6.834,100.9454,1.711,2.963,33.17,0,109.6,13.54,2.47,259.5
"2009-12-15 00:21:00",1503688,12.16,297.6,4.634,0.728,6.931,100.9426,1.704,2.982,32.92,0,109.6,13.53,2.46,259.6
"2009-12-15 00:21:30",1503689,12.11,295.6,4.038,0.548,6.957,100.9414,1.701,2.967,32.85,0,109.6,13.54,2.46,257.6
"2009-12-15 00:22:00",1503690,12.06,294.7,3.38,0.665,7.05,100.94,1.698,2.973,33.03,0,109.6,13.54,2.46,256.7
"2009-12-15 00:22:30",1503691,12.43,294.3,3.304,0.52,6.989,100.9341,1.683,2.976,33.12,0,109.6,13.54,2.44,256.3
"2009-12-15 00:23:00",1503692,12.09,295.4,3.417,0.649,7.109,100.9267,1.664,2.977,32.94,0,109.6,13.54,2.42,257.4
"2009-12-15 00:23:30",1503693,12.01,295.5,2.7,0.743,7.077,100.9202,1.647,2.96,32.72,0,109.6,13.54,2.41,257.5
"2009-12-15 00:24:00",1503694,11.64,295,2.479,0.86,7.351,100.9179,1.641,2.967,32.49,0,109.6,13.54,2.40,257.0
"2009-12-15 00:24:30",1503695,11.54,298.4,3.979,0.664,7.05,100.9182,1.642,2.965,32.25,0,109.6,13.54,2.40,260.4
"2009-12-15 00:25:00",1503696,11.37,302.1,3.195,0.763,6.99,100.9171,1.639,2.982,32.39,0,109.6,13.54,2.40,264.1
"2009-12-15 00:25:30",1503697,11.61,300.4,3.289,0.8,7.112,100.9174,1.64,2.967,32.24,0,109.6,13.54,2.40,262.4
"2009-12-15 00:26:00",1503698,10.56,301.6,3.522,0.862,7.32,100.9168,1.639,2.957,32.13,0,109.6,13.54,2.40,263.6
"2009-12-15 00:26:30",1503699,11.04,302.6,3.791,0.578,7.055,100.9171,1.639,2.959,32.04,0,109.6,13.54,2.40,264.6
"2009-12-15 00:27:00",1503700,11.87,300.7,3.745,0.768,6.835,100.9176,1.641,2.985,32.27,0,109.6,13.54,2.40,262.7
"2009-12-15 00:27:30",1503701,12.36,299.8,3.92,0.62,6.855,100.9174,1.64,2.968,32.66,0,109.6,13.54,2.40,261.8
"2009-12-15 00:28:00",1503702,12.5,299.4,3.204,0.634,7.028,100.9168,1.639,2.959,32.81,0,109.6,13.54,2.40,261.4
"2009-12-15 00:28:30",1503703,12.55,302.7,2.965,0.611,6.95,100.9168,1.639,2.968,32.79,0,109.6,13.54,2.40,264.7
"2009-12-15 00:29:00",1503704,12.17,303.9,3.379,0.678,6.889,100.9174,1.64,2.98,32.78,0,109.6,13.53,2.40,265.9
"2009-12-15 00:29:30",1503705,11.9,305.4,3.628,0.567,6.983,100.9168,1.639,2.973,32.72,0,109.6,13.53,2.40,267.4
"2009-12-15 00:30:00",1503706,11.78,306.7,3.937,0.557,7.232,100.9168,1.639,2.964,32.76,0,109.6,13.53,2.40,268.7
"2009-12-15 00:30:30",1503707,11.57,307.6,3.807,0.485,7.318,100.9174,1.64,2.956,32.51,0,109.6,13.53,2.40,269.6
"2009-12-15 00:31:00",1503708,11.06,305.9,3.118,0.725,7.111,100.9168,1.639,2.954,32.19,0,109.6,13.53,2.40,267.9
"2009-12-15 00:31:30",1503709,10.67,305.7,2.721,0.814,7.102,100.9177,1.641,2.953,32.06,0,109.6,13.53,2.40,267.7
"2009-12-15 00:32:00",1503710,10.34,304.7,2.697,0.813,7.18,100.9182,1.642,2.945,31.97,0,109.6,13.53,2.40,266.7
"2009-12-15 00:32:30",1503711,10.46,305.3,3.566,0.477,6.891,100.9188,1.644,2.944,31.91,0,109.7,13.53,2.40,267.3
"2009-12-15 00:33:00",1503712,10.52,304.9,3.175,0.661,6.868,100.9179,1.641,2.963,31.89,0,109.6,13.53,2.40,266.9
"2009-12-15 00:33:30",1503713,10.87,303,3.657,0.65,6.552,100.9185,1.643,2.932,32.26,0,109.6,13.54,2.40,265.0
"2009-12-15 00:34:00",1503714,10.81,307.4,3.178,0.721,6.802,100.9202,1.647,2.934,32.53,0,109.6,13.54,2.41,269.4
"2009-12-15 00:34:30",1503715,9.91,307.3,3.307,0.681,6.831,100.9211,1.649,2.94,32.03,0,109.6,13.54,2.41,269.3
"2009-12-15 00:35:00",1503716,9.55,304.9,3.447,0.679,6.851,100.9228,1.654,2.926,31.81,0,109.6,13.54,2.41,266.9
"2009-12-15 00:35:30",1503717,9.37,305.3,2.803,0.724,6.586,100.9237,1.656,2.919,31.72,0,109.6,13.54,2.41,267.3
"2009-12-15 00:36:00",1503718,8.5,301.6,6.249,1.162,5.209,100.9245,1.658,2.917,31.71,0,109.6,13.54,2.42,263.6
"2009-12-15 00:36:30",1503719,8.4,302.2,5.922,1.222,5.805,100.9251,1.66,2.855,31.61,0,109.6,13.54,2.42,264.2
"2009-12-15 00:37:00",1503720,8.17,299,7.319,1.078,4.608,100.9257,1.661,2.787,31.56,0,109.6,13.54,2.42,261.0
"2009-12-15 00:37:30",1503721,9.06,302.4,6.483,1.041,5.837,100.9277,1.666,2.863,31.55,0,109.6,13.55,2.42,264.4
"2009-12-15 00:38:00",1503722,10.08,302.4,5.096,0.903,6.946,100.9274,1.666,2.931,31.78,0,109.6,13.55,2.42,264.4
"2009-12-15 00:38:30",1503723,9.97,301,4.601,0.845,7.057,100.9285,1.668,2.942,31.79,0,109.6,13.55,2.43,263.0
"2009-12-15 00:39:00",1503724,10.47,300.1,4.206,0.687,7.379,100.9317,1.676,2.951,31.97,0,109.6,13.55,2.43,262.1
"2009-12-15 00:39:30",1503725,10.62,298.8,3.689,0.591,7.307,100.9319,1.677,2.96,32.15,0,109.6,13.55,2.43,260.8
"2009-12-15 00:40:00",1503726,10.73,298.5,3.044,0.638,6.95,100.9311,1.675,2.942,32.23,0,109.6,13.55,2.43,260.5
"2009-12-15 00:40:30",1503727,10.8,295.9,4.045,0.806,6.906,100.9342,1.683,2.973,32.4,0,109.6,13.55,2.44,257.9
"2009-12-15 00:41:00",1503728,10.74,294.3,4.316,0.576,6.775,100.9362,1.688,2.956,32.72,0,109.6,13.55,2.45,256.3
"2009-12-15 00:41:30",1503729,10.87,294.2,3.819,0.51,6.806,100.9354,1.686,2.954,32.79,0,109.6,13.55,2.44,256.2
"2009-12-15 00:42:00",1503730,10.39,295,2.386,0.748,6.683,100.9303,1.673,2.954,32.72,0,109.6,13.55,2.43,257.0
"2009-12-15 00:42:30",1503731,11.13,299.8,1.722,0.771,6.499,100.9224,1.653,2.954,32.6,0,109.6,13.55,2.41,261.8
"2009-12-15 00:43:00",1503732,11.49,299.2,3.256,0.758,6.475,100.9204,1.648,2.949,32.44,0,109.6,13.55,2.41,261.2
"2009-12-15 00:43:30",1503733,11.32,300.9,2.881,0.762,6.459,100.9165,1.638,2.931,32.53,0,109.6,13.55,2.40,262.9
"2009-12-15 00:44:00",1503734,11.44,302.4,3.314,0.609,6.655,100.9102,1.622,2.917,32.65,0,109.6,13.55,2.38,264.4
"2009-12-15 00:44:30",1503735,11.47,300.9,3.568,0.545,6.697,100.9077,1.615,2.906,32.56,0,109.7,13.55,2.37,262.9
"2009-12-15 00:45:00",1503736,10.87,302.2,4.691,0.681,6.796,100.9074,1.615,2.925,32.19,0,109.6,13.54,2.37,264.2
"2009-12-15 00:45:30",1503737,10.15,306.2,3.571,0.712,6.835,100.9083,1.617,2.899,32.11,0,109.6,13.54,2.37,268.2
"2009-12-15 00:46:00",1503738,9.63,304.4,4.464,0.656,6.983,100.908,1.616,2.901,32.02,0,109.6,13.54,2.37,266.4
"2009-12-15 00:46:30",1503739,9.28,303.6,3.674,0.671,6.682,100.9071,1.614,2.911,31.94,0,109.6,13.54,2.37,265.6
"2009-12-15 00:47:00",1503740,8.43,304,5.362,0.507,6.932,100.9083,1.617,2.876,31.92,0,109.6,13.54,2.37,266.0
"2009-12-15 00:47:30",1503741,9.14,295,6.09,1.055,5.716,100.9088,1.618,2.832,31.76,0,109.6,13.54,2.38,257.0
"2009-12-15 00:48:00",1503742,10.45,293.7,4.393,0.829,6.077,100.9088,1.618,2.849,31.92,0,109.6,13.54,2.38,255.7
"2009-12-15 00:48:30",1503743,10.45,294.4,4.802,0.849,5.964,100.9077,1.615,2.871,32.21,0,109.6,13.54,2.37,256.4
"2009-12-15 00:49:00",1503744,10.71,296.7,3.892,0.741,6.368,100.9063,1.612,2.89,32.34,0,109.6,13.54,2.37,258.7
"2009-12-15 00:49:30",1503745,10.74,297.6,3.405,0.668,6.442,100.9012,1.599,2.894,32.09,0,109.6,13.55,2.36,259.6
"2009-12-15 00:50:00",1503746,10.49,298.6,3.625,0.765,6.439,100.9018,1.6,2.87,31.87,0,109.6,13.55,2.36,260.6
"2009-12-15 00:50:30",1503747,10.37,297.1,3.772,0.4,6.779,100.9009,1.598,2.868,31.65,0,109.6,13.55,2.36,259.1
"2009-12-15 00:51:00",1503748,10.58,296.4,3.94,0.662,6.494,100.8981,1.591,2.866,31.56,0,109.6,13.55,2.35,258.4
"2009-12-15 00:51:30",1503749,10.85,295.6,3.567,0.657,6.46,100.9007,1.597,2.869,31.62,0,109.6,13.55,2.36,257.6
"2009-12-15 00:52:00",1503750,11.03,295.9,3.758,0.698,6.624,100.9007,1.597,2.859,31.65,0,109.6,13.56,2.36,257.9
"2009-12-15 00:52:30",1503751,11.39,295.5,2.819,0.658,6.496,100.9024,1.602,2.849,31.78,0,109.6,13.56,2.36,257.5
"2009-12-15 00:53:00",1503752,11.18,296.3,3.545,0.665,6.49,100.9015,1.6,2.871,31.94,0,109.6,13.56,2.36,258.3
"2009-12-15 00:53:30",1503753,11.13,296.1,3.427,0.621,6.559,100.9013,1.599,2.841,32.03,0,109.6,13.56,2.36,258.1
"2009-12-15 00:54:00",1503754,10.77,298,3.512,0.654,6.633,100.8987,1.592,2.847,31.94,0,109.6,13.56,2.35,260.0
"2009-12-15 00:54:30",1503755,11.21,298.1,3.442,0.461,6.687,100.8976,1.589,2.866,31.85,0,109.6,13.56,2.35,260.1
"2009-12-15 00:55:00",1503756,11.12,297,4.193,0.582,6.777,100.8956,1.584,2.865,31.69,0,109.6,13.56,2.34,259.0
"2009-12-15 00:55:30",1503757,10.88,298.1,4.621,0.581,6.859,100.8939,1.58,2.86,31.55,0,109.6,13.56,2.34,260.1
"2009-12-15 00:56:00",1503758,9.5,299.2,4.866,0.787,6.912,100.8933,1.579,2.856,31.38,0,109.6,13.56,2.34,261.2
"2009-12-15 00:56:30",1503759,9.77,296.6,3.317,0.681,6.751,100.8933,1.579,2.849,31.19,0,109.6,13.56,2.34,258.6
"2009-12-15 00:57:00",1503760,10.03,299.6,4.435,0.628,6.667,100.8965,1.587,2.86,31.14,0,109.6,13.56,2.34,261.6
"2009-12-15 00:57:30",1503761,10.66,300.7,4.258,0.565,6.598,100.8961,1.586,2.85,31.14,0,109.6,13.56,2.34,262.7
"2009-12-15 00:58:00",1503762,12,299.7,3.44,0.624,6.533,100.899,1.593,2.859,31.42,0,109.6,13.56,2.35,261.7
"2009-12-15 00:58:30",1503763,12.12,302.1,3.566,0.476,6.375,100.8984,1.592,2.858,31.82,0,109.6,13.56,2.35,264.1
"2009-12-15 00:59:00",1503764,12.01,302.4,3.484,0.641,6.476,100.899,1.593,2.875,32.08,0,109.6,13.56,2.35,264.4
"2009-12-15 00:59:30",1503765,11.97,305.5,3.288,0.536,6.543,100.8998,1.595,2.855,32.19,0,109.6,13.56,2.35,267.5
"2009-12-15 01:00:00",1503766,11.87,306.5,3.428,0.548,6.852,100.8956,1.584,2.849,32.31,0,109.6,13.56,2.34,268.5
"2009-12-15 01:00:30",1503767,11.7,306.2,2.804,0.52,6.873,100.8899,1.57,2.844,32.01,0,109.5,13.56,2.33,268.2
"2009-12-15 01:01:00",1503768,11.02,306.1,3.436,0.693,6.936,100.886,1.56,2.869,31.69,0,109.6,13.55,2.32,268.1
"2009-12-15 01:01:30",1503769,10.76,305.1,3.672,0.687,6.997,100.8831,1.553,2.857,31.51,0,109.6,13.55,2.31,267.1
"2009-12-15 01:02:00",1503770,10.73,304.9,4.097,0.597,7.204,100.8831,1.553,2.833,31.38,0,109.6,13.55,2.31,266.9
"2009-12-15 01:02:30",1503771,10.34,306.6,3.4,0.679,7.023,100.8834,1.553,2.844,31.31,0,109.6,13.55,2.31,268.6
"2009-12-15 01:03:00",1503772,10.31,306.3,3.355,0.708,6.879,100.8832,1.553,2.846,31.24,0,109.6,13.55,2.31,268.3
"2009-12-15 01:03:30",1503773,12.04,304.3,3.456,0.787,6.518,100.8829,1.552,2.829,31.63,0,109.6,13.55,2.31,266.3
"2009-12-15 01:04:00",1503774,13.52,304.8,4.494,0.558,6.755,100.8831,1.553,2.854,32.17,0,109.6,13.55,2.31,266.8
"2009-12-15 01:04:30",1503775,13.68,308.3,2.874,0.65,6.818,100.8829,1.552,2.842,32.27,0,109.6,13.55,2.31,270.3
"2009-12-15 01:05:00",1503776,13.46,305.3,3.86,0.587,7.039,100.8832,1.553,2.849,32.05,0,109.6,13.55,2.31,267.3
"2009-12-15 01:05:30",1503777,12.78,307.3,3.787,0.802,7.238,100.8832,1.553,2.839,32.03,0,109.6,13.55,2.31,269.3
"2009-12-15 01:06:00",1503778,11.89,306.8,3.603,0.739,7.406,100.8832,1.553,2.844,32.09,0,109.6,13.56,2.31,268.8
"2009-12-15 01:06:30",1503779,11.24,309.9,5.708,0.58,7.33,100.8832,1.553,2.83,31.84,0,109.6,13.56,2.31,271.9
"2009-12-15 01:07:00",1503780,10.35,310.9,3.451,0.959,7.386,100.8832,1.553,2.848,31.2,0,109.6,13.56,2.31,272.9
"2009-12-15 01:07:30",1503781,9.73,303.4,4.03,0.71,7.321,100.8832,1.553,2.842,30.85,0,109.6,13.56,2.31,265.4
"2009-12-15 01:08:00",1503782,10.77,301.3,4.175,0.627,7.105,100.8832,1.553,2.824,31.05,0,109.6,13.56,2.31,263.3
"2009-12-15 01:08:30",1503783,10.52,303.5,3.612,0.618,6.959,100.8832,1.553,2.836,31.46,0,109.6,13.56,2.31,265.5
"2009-12-15 01:09:00",1503784,10.07,303.4,4.128,0.582,6.856,100.8851,1.558,2.833,31.56,0,109.6,13.56,2.32,265.4
"2009-12-15 01:09:30",1503785,9.71,301.2,4.838,0.6,6.827,100.8911,1.573,2.844,31.35,0,109.6,13.56,2.33,263.2
"2009-12-15 01:10:00",1503786,9.86,306.1,4.571,0.633,6.712,100.9007,1.597,2.863,31.13,0,109.6,13.56,2.36,268.1
"2009-12-15 01:10:30",1503787,10.83,313.1,4.131,0.654,6.662,100.9072,1.614,2.853,31.05,0,109.6,13.56,2.37,275.1
"2009-12-15 01:11:00",1503788,12.46,304.8,3.628,0.762,6.363,100.914,1.631,2.871,31.32,0,109.6,13.56,2.39,266.8
"2009-12-15 01:11:30",1503789,12.17,307.7,2.998,0.826,6.635,100.9163,1.637,2.867,31.27,0,109.6,13.56,2.40,269.7
"2009-12-15 01:12:00",1503790,12.3,309.9,3.936,0.504,6.798,100.9171,1.639,2.874,31.2,0,109.6,13.56,2.40,271.9
"2009-12-15 01:12:30",1503791,11.78,309.9,3.93,0.691,6.969,100.9168,1.639,2.899,31.07,0,109.6,13.56,2.40,271.9
"2009-12-15 01:13:00",1503792,11.73,306.8,3.763,0.689,7.403,100.9168,1.639,2.867,30.94,0,109.6,13.56,2.40,268.8
"2009-12-15 01:13:30",1503793,11.12,307.7,4.451,0.588,7.151,100.9171,1.639,2.878,30.66,0,109.6,13.56,2.40,269.7
"2009-12-15 01:14:00",1503794,11.33,308.3,2.916,1.044,7.041,100.9171,1.639,2.878,30.54,0,109.6,13.56,2.40,270.3
"2009-12-15 01:14:30",1503795,12.93,302.8,4.237,0.698,7.051,100.9171,1.639,2.898,30.73,0,109.6,13.56,2.40,264.8
"2009-12-15 01:15:00",1503796,12.46,307.6,3.827,0.863,7.211,100.9171,1.639,2.886,30.63,0,109.6,13.56,2.40,269.6
"2009-12-15 01:15:30",1503797,12.05,312.6,5.377,0.906,7.44,100.9171,1.639,2.903,30.08,0,109.6,13.56,2.40,274.6
"2009-12-15 01:16:00",1503798,11.66,319,5.122,0.959,7.671,100.9171,1.639,2.921,29.32,0,109.6,13.56,2.40,281.0
"2009-12-15 01:16:30",1503799,10.71,318.4,3.867,0.669,7.375,100.9171,1.639,2.89,29.64,0,109.7,13.56,2.40,280.4
"2009-12-15 01:17:00",1503800,11.08,312.4,6.545,0.783,7.341,100.9171,1.639,2.931,29.91,0,109.6,13.56,2.40,274.4
"2009-12-15 01:17:30",1503801,11.25,307.3,3.485,0.723,7.264,100.9183,1.642,2.9,30.18,0,109.6,13.56,2.40,269.3
"2009-12-15 01:18:00",1503802,10.94,309.3,3.874,0.68,7.468,100.9231,1.655,2.921,29.93,0,109.6,13.56,2.41,271.3
"2009-12-15 01:18:30",1503803,11.29,310.1,3.959,0.691,7.202,100.9299,1.672,2.917,29.25,0,109.6,13.56,2.43,272.1
"2009-12-15 01:19:00",1503804,11.58,313.1,3.917,0.77,7.342,100.9335,1.681,2.949,28.96,0,109.6,13.56,2.44,275.1
"2009-12-15 01:19:30",1503805,11.98,311.5,3.761,0.769,7.096,100.9378,1.692,2.94,28.8,0,109.6,13.56,2.45,273.5
"2009-12-15 01:20:00",1503806,12.9,306.3,4.677,0.603,7.15,100.9463,1.714,2.94,29.76,0,109.6,13.56,2.47,268.3
"2009-12-15 01:20:30",1503807,12.96,307.2,2.752,0.771,7.075,100.95,1.723,2.955,30.29,0,109.6,13.56,2.48,269.2
"2009-12-15 01:21:00",1503808,13.17,307.7,2.796,0.65,7.267,100.9511,1.726,2.964,30.17,0,109.6,13.56,2.48,269.7
"2009-12-15 01:21:30",1503809,12.84,310.3,4.103,0.668,7.386,100.9511,1.726,2.964,29.96,0,109.6,13.56,2.48,272.3
"2009-12-15 01:22:00",1503810,12.28,314,3.663,0.678,7.464,100.9511,1.726,2.976,29.83,0,109.6,13.56,2.48,276.0
"2009-12-15 01:22:30",1503811,12.01,309.6,2.556,0.709,7.457,100.9511,1.726,2.956,29.82,0,109.6,13.56,2.48,271.6
"2009-12-15 01:23:00",1503812,12.42,306.6,3.116,0.609,7.469,100.9511,1.726,2.963,29.89,0,109.6,13.56,2.48,268.6
"2009-12-15 01:23:30",1503813,12.52,311.6,3.72,0.776,7.56,100.9511,1.726,2.969,29.23,0,109.6,13.56,2.48,273.6
"2009-12-15 01:24:00",1503814,12.55,313,4.414,0.531,7.697,100.9511,1.726,2.969,28.85,0,109.6,13.56,2.48,275.0
"2009-12-15 01:24:30",1503815,12.69,312,4.18,0.562,7.556,100.9511,1.726,2.984,29.12,0,109.6,13.56,2.48,274.0
"2009-12-15 01:25:00",1503816,13.05,313.2,4.563,0.768,7.491,100.9511,1.726,2.994,29.08,0,109.6,13.56,2.48,275.2
"2009-12-15 01:25:30",1503817,13.59,309.7,3.33,0.841,7.423,100.9511,1.726,2.988,29.85,0,109.6,13.56,2.48,271.7
"2009-12-15 01:26:00",1503818,13.14,312.9,3.738,0.935,7.762,100.9511,1.726,2.996,29.48,0,109.6,13.56,2.48,274.9
"2009-12-15 01:26:30",1503819,12.78,307.1,3.608,0.786,7.525,100.9511,1.726,3.006,29.57,0,109.6,13.56,2.48,269.1
"2009-12-15 01:27:00",1503820,12.91,310.9,3.78,0.712,7.515,100.9511,1.726,3.009,29.75,0,109.6,13.56,2.48,272.9
"2009-12-15 01:27:30",1503821,12.87,311.7,3.289,0.826,7.442,100.9511,1.726,2.992,29.71,0,109.6,13.56,2.48,273.7
"2009-12-15 01:28:00",1503822,13.53,313,5.124,0.753,7.726,100.9511,1.726,2.995,29.54,0,109.6,13.56,2.48,275.0
"2009-12-15 01:28:30",1503823,12.8,308.3,2.771,0.772,7.575,100.9511,1.726,3.005,29.66,0,109.6,13.56,2.48,270.3
"2009-12-15 01:29:00",1503824,13.77,307.4,3.591,0.723,7.344,100.9511,1.726,3.013,30.01,0,109.6,13.56,2.48,269.4
"2009-12-15 01:29:30",1503825,13.64,306.8,3.831,0.681,7.577,100.9511,1.726,2.998,30.24,0,109.6,13.56,2.48,268.8
"2009-12-15 01:30:00",1503826,13.14,312.1,5.406,0.79,7.776,100.9511,1.726,3.004,29.52,0,109.6,13.56,2.48,274.1
"2009-12-15 01:30:30",1503827,13.4,319,4.23,0.727,7.895,100.9511,1.726,3.001,29.19,0,109.6,13.56,2.48,281.0
"2009-12-15 01:31:00",1503828,14.09,313.6,4.87,0.651,7.982,100.9511,1.726,3.011,29.14,0,109.6,13.56,2.48,275.6
"2009-12-15 01:31:30",1503829,14.65,317.2,4.271,0.743,8.04,100.9511,1.726,2.998,29.2,0,109.6,13.56,2.48,279.2
"2009-12-15 01:32:00",1503830,14.06,319.3,4.189,0.965,8.08,100.9511,1.726,3.004,29.22,0,109.6,13.56,2.48,281.3
"2009-12-15 01:32:30",1503831,14.24,319.7,4.088,0.796,8.05,100.9511,1.726,2.991,29.43,0,109.6,13.56,2.48,281.7
"2009-12-15 01:33:00",1503832,13.73,314.7,4.492,0.78,8.03,100.9511,1.726,3.007,29.65,0,109.6,13.56,2.48,276.7
"2009-12-15 01:33:30",1503833,13.33,311.1,4.019,0.704,7.872,100.9511,1.726,3.005,29.74,0,109.6,13.56,2.48,273.1
"2009-12-15 01:34:00",1503834,13.96,312.9,2.838,0.865,7.837,100.9511,1.726,3.002,29.77,0,109.6,13.56,2.48,274.9
"2009-12-15 01:34:30",1503835,14.3,313.4,4.252,0.68,7.73,100.9511,1.726,2.999,29.88,0,109.6,13.56,2.48,275.4
"2009-12-15 01:35:00",1503836,15.17,315.4,3.678,0.754,8.09,100.9511,1.726,3.015,29.56,0,109.6,13.56,2.48,277.4
"2009-12-15 01:35:30",1503837,13.75,312.7,4.108,0.696,7.92,100.9511,1.726,3.011,29.42,0,109.6,13.56,2.48,274.7
"2009-12-15 01:36:00",1503838,14.04,312.8,4.056,0.732,8.09,100.9511,1.726,3.003,29.58,0,109.6,13.56,2.48,274.8
"2009-12-15 01:36:30",1503839,13.81,311.6,3.964,0.557,7.915,100.9511,1.726,3.006,29.71,0,109.6,13.56,2.48,273.6
"2009-12-15 01:37:00",1503840,13.75,312.6,2.665,0.655,7.84,100.9511,1.726,3.018,29.88,0,109.6,13.56,2.48,274.6
"2009-12-15 01:37:30",1503841,14.26,316.1,5.302,0.953,7.877,100.9511,1.726,3.011,29.79,0,109.6,13.56,2.48,278.1
"2009-12-15 01:38:00",1503842,13.36,307.5,3.522,0.704,7.893,100.9511,1.726,2.994,29.86,0,109.6,13.56,2.48,269.5
"2009-12-15 01:38:30",1503843,13.63,310.6,3.339,0.649,7.707,100.9511,1.726,2.99,29.97,0,109.6,13.56,2.48,272.6
"2009-12-15 01:39:00",1503844,13.79,310,4.082,0.519,7.613,100.9511,1.726,3.009,29.92,0,109.6,13.56,2.48,272.0
"2009-12-15 01:39:30",1503845,13.96,307.3,4.343,0.631,7.763,100.9511,1.726,3.007,30.14,0,109.6,13.56,2.48,269.3
"2009-12-15 01:40:00",1503846,13.72,308.7,4.044,0.588,7.906,100.9511,1.726,2.987,30.2,0,109.6,13.57,2.48,270.7
"2009-12-15 01:40:30",1503847,14.42,309.8,4.306,0.747,7.8,100.9505,1.725,2.99,30.15,0,109.6,13.57,2.48,271.8
"2009-12-15 01:41:00",1503848,14.84,309.8,3.114,0.838,7.689,100.9457,1.712,2.998,30.08,0,109.6,13.57,2.47,271.8
"2009-12-15 01:41:30",1503849,14.22,308.2,3.561,0.831,7.723,100.94,1.698,2.982,30.09,0,109.6,13.57,2.46,270.2
"2009-12-15 01:42:00",1503850,14.76,307.8,4.064,0.661,7.95,100.9361,1.688,2.968,30.15,0,109.6,13.57,2.45,269.8
"2009-12-15 01:42:30",1503851,14.15,306.9,3.772,0.561,7.789,100.9324,1.678,2.99,30.26,0,109.6,13.57,2.44,268.9
"2009-12-15 01:43:00",1503852,14.01,308.3,3.485,0.806,7.728,100.9313,1.675,2.971,30.21,0,109.6,13.57,2.43,270.3
"2009-12-15 01:43:30",1503853,15.15,308.3,4.528,0.816,7.901,100.9293,1.67,2.969,30.06,0,109.6,13.57,2.43,270.3
"2009-12-15 01:44:00",1503854,15.06,310.1,3.608,0.911,7.941,100.9239,1.657,2.945,30.08,0,109.6,13.57,2.41,272.1
"2009-12-15 01:44:30",1503855,15.45,310.8,3.046,0.757,7.826,100.9188,1.644,2.944,30.03,0,109.6,13.57,2.40,272.8
"2009-12-15 01:45:00",1503856,15.34,309.1,3.457,0.746,7.744,100.9177,1.641,2.951,30.27,0,109.6,13.57,2.40,271.1
"2009-12-15 01:45:30",1503857,15.18,309.6,3.913,0.688,7.789,100.9171,1.639,2.926,30.5,0,109.6,13.57,2.40,271.6
"2009-12-15 01:46:00",1503858,15.06,306.4,3.761,0.685,7.845,100.9171,1.639,2.926,30.63,0,109.6,13.57,2.40,268.4
"2009-12-15 01:46:30",1503859,14.87,305,3.501,0.665,7.831,100.9171,1.639,2.922,30.84,0,109.6,13.57,2.40,267.0
"2009-12-15 01:47:00",1503860,15.17,306.1,4.03,0.491,8.02,100.9171,1.639,2.919,30.44,0,109.6,13.57,2.40,268.1
"2009-12-15 01:47:30",1503861,15.4,307.6,4.536,0.678,8.12,100.9171,1.639,2.916,30.58,0,109.6,13.57,2.40,269.6